Location: Arrien
(43.3167°N, 0.1500°W)
Time: 12:07:26
(UTC+00:00)

Cosmos 1544 Rocket - Visible Passes

Search period start: 29 May 2022 00:00
Search period end: 08 June 2022 00:00
Orbit: 605 x 629 km, 82.5° (Epoch: 28 May)

Date Brightness Start Highest point End Pass type
(mag) Time Alt. Az. Time Alt. Az. Time Alt. Az.
29 May 5.8 00:20:38 10° NNE 00:23:29 17° ENE 00:25:14 14° E visible
29 May 3.9 01:57:22 10° NNW 02:01:35 46° W 02:02:20 41° WSW visible
30 May 5.1 00:36:39 10° NNE 00:40:28 28° ENE 00:41:40 25° ESE visible
30 May 4.7 02:14:34 10° NNW 02:18:11 25° W 02:18:46 25° WSW visible
31 May 4.1 00:53:04 10° N 00:57:22 51° ENE 00:58:07 45° ESE visible
31 May 5.5 02:32:20 10° NW 02:34:42 14° W 02:35:13 14° W visible
01 Jun 3.4 01:09:44 10° N 01:14:10 86° W 01:14:36 72° S visible
01 Jun 5.7 23:49:56 10° NNE 23:52:45 16° ENE 23:53:59 15° E visible
02 Jun 3.9 01:26:40 10° NNW 01:30:51 46° W 01:31:05 45° WSW visible
03 Jun 5.0 00:05:56 10° NNE 00:09:45 28° ENE 00:10:30 27° E visible
03 Jun 4.8 01:43:52 10° NNW 01:47:27 25° W 01:47:35 25° W visible
04 Jun 4.0 00:22:21 10° N 00:26:38 50° E 00:27:01 49° E visible
04 Jun 5.5 02:01:38 10° NW 02:03:59 14° W 02:04:07 14° W visible
05 Jun 3.4 00:39:01 10° N 00:43:25 87° W 00:43:33 84° SSW visible
05 Jun 5.7 23:19:14 10° NNE 23:22:00 16° ENE 23:23:00 15° E visible
06 Jun 4.0 00:55:56 10° NNW 01:00:05 46° W 01:00:05 46° W visible
06 Jun 4.9 23:35:13 10° NNE 23:39:00 28° ENE 23:39:33 27° E visible
07 Jun 4.9 01:13:07 10° NNW 01:16:39 25° W 01:16:39 25° W visible
